User: anonymous   Login
Location: Dürabuch
(48.2640°N, 11.2185°E)
Time: 09:15:34
(UTC+00:00)
Language:

SL-16 R/B - Orbit

View from above orbital plane
View from above orbital plane
View from above satellite
View from above satellite

Ground track
Ground track

The orbit data is extracted from the following two-line orbital elements,

1 31793U 07029B   24197.18398078 -.00000017  00000-0  16160-4 0  9995
2 31793  70.9760 358.7408 0002213 256.3596 276.3474 14.14636733880246
Epoch (UTC): 15 July 2024 04:24:55
Eccentricity: 0.0002213
inclination: 70.9760°
perigee height: 842 km
apogee height: 845 km
right ascension of ascending node: 358.7408°
argument of perigee: 256.3596°
revolutions per day: 14.14636733
mean anomaly at epoch: 276.3474°
orbit number at epoch: 88024

The dashed part of the orbit path shows where the satellite is in the earth's shadow,  

DLR